| time (UTC) | temp F | wind direction | speed MPH | gust MPH | rain 1hr in | rain 24hr in | rain mn in | humidity % | barometer mb |
| 20260507183002 | 61 | 285 | 14.0 | 22.0 | 0.00 | 0.00 | 0.00 | 39 | 1013.3 |
| 20260507181501 | 61 | 311 | 16.0 | 23.0 | 0.00 | 0.00 | 0.00 | 39 | 1013.4 |
| 20260507180001 | 61 | 306 | 14.0 | 24.0 | 0.00 | 0.00 | 0.00 | 40 | 1013.4 |
| 20260507174603 | 61 | 286 | 15.0 | 26.0 | 0.00 | 0.00 | 0.00 | 41 | 1013.2 |
| 20260507173109 | 61 | 296 | 16.0 | 22.0 | 0.00 | 0.00 | 0.00 | 40 | 1013.5 |
| 20260507171557 | 60 | 292 | 14.0 | 23.0 | 0.00 | 0.00 | 0.00 | 43 | 1013.8 |
| 20260507170059 | 60 | 312 | 13.0 | 24.0 | 0.00 | 0.00 | 0.00 | 44 | 1013.7 |
| 20260507164554 | 58 | 280 | 17.0 | 23.0 | 0.00 | 0.00 | 0.00 | 45 | 1013.8 |
| 20260507163056 | 58 | 318 | 13.0 | 18.0 | 0.00 | 0.00 | 0.00 | 47 | 1013.8 |
| 20260507161555 | 57 | 285 | 11.0 | 19.0 | 0.00 | 0.00 | 0.00 | 50 | 1013.8 |
| 20260507160051 | 57 | 303 | 10.0 | 17.0 | 0.00 | 0.00 | 0.00 | 51 | 1013.8 |
| 20260507154548 | 56 | 279 | 13.0 | 19.0 | 0.00 | 0.00 | 0.00 | 52 | 1013.9 |
| 20260507153100 | 57 | 315 | 12.0 | 17.0 | 0.00 | 0.00 | 0.00 | 51 | 1013.8 |
| 20260507151544 | 55 | 284 | 6.0 | 12.0 | 0.00 | 0.00 | 0.00 | 50 | 1013.7 |
| 20260507150045 | 54 | 231 | 6.0 | 13.0 | 0.00 | 0.00 | 0.00 | 52 | 1013.7 |
| 20260507144543 | 53 | 224 | 5.0 | 8.0 | 0.00 | 0.00 | 0.00 | 57 | 1013.5 |
| 20260507143036 | 51 | 226 | 4.0 | 9.0 | 0.00 | 0.00 | 0.00 | 61 | 1013.5 |
| 20260507141537 | 50 | 221 | 6.0 | 9.0 | 0.00 | 0.00 | 0.00 | 66 | 1013.4 |
| 20260507140038 | 48 | 198 | 7.0 | 9.0 | 0.00 | 0.00 | 0.00 | 72 | 1013.4 |
| 20260507134536 | 45 | 207 | 6.0 | 9.0 | 0.00 | 0.00 | 0.00 | 78 | 1013.4 |
| 20260507133042 | 46 | 218 | 6.0 | 12.0 | 0.00 | 0.00 | 0.00 | 69 | 1013.4 |
| 20260507131538 | 47 | 263 | 8.0 | 11.0 | 0.00 | 0.00 | 0.00 | 59 | 1013.8 |
| 20260507130048 | 45 | 256 | 6.0 | 8.0 | 0.00 | 0.00 | 0.00 | 64 | 1013.5 |
| 20260507124538 | 44 | 225 | 5.0 | 7.0 | 0.00 | 0.00 | 0.00 | 67 | 1013.3 |
| 20260507123035 | 43 | 202 | 3.0 | 7.0 | 0.00 | 0.00 | 0.00 | 70 | 1013.3 |
| 20260507121533 | 43 | 210 | 3.0 | 7.0 | 0.00 | 0.00 | 0.00 | 67 | 1012.8 |
| 20260507120028 | 45 | 245 | 4.0 | 9.0 | 0.00 | 0.00 | 0.00 | 62 | 1012.9 |
| 20260507114523 | 47 | 267 | 6.0 | 9.0 | 0.00 | 0.00 | 0.00 | 59 | 1012.8 |
| 20260507113026 | 46 | 278 | 7.0 | 9.0 | 0.00 | 0.00 | 0.00 | 59 | 1012.6 |
| 20260507111522 | 47 | 231 | 1.0 | 3.0 | 0.00 | 0.00 | 0.00 | 58 | 1012.5 |
| 20260507110024 | 46 | 231 | 3.0 | 5.0 | 0.00 | 0.00 | 0.00 | 59 | 1012.5 |
| 20260507104520 | 51 | 121 | 2.0 | 4.0 | 0.00 | 0.00 | 0.00 | 52 | 1012.4 |
| 20260507103019 | 51 | 121 | 1.0 | 2.0 | 0.00 | 0.00 | 0.00 | 50 | 1012.2 |
| 20260507101518 | 50 | 121 | 0.0 | 2.0 | 0.00 | 0.00 | 0.00 | 51 | 1012.0 |
| 20260507100016 | 51 | 121 | 1.0 | 4.0 | 0.00 | 0.00 | 0.00 | 50 | 1012.0 |
| 20260507094516 | 50 | 121 | 3.0 | 6.0 | 0.00 | 0.00 | 0.00 | 51 | 1011.9 |
| 20260507093016 | 50 | 142 | 0.0 | 3.0 | 0.00 | 0.00 | 0.00 | 52 | 1011.8 |
| 20260507091511 | 48 | 142 | 0.0 | 3.0 | 0.00 | 0.00 | 0.00 | 53 | 1011.6 |
| 20260507090012 | 49 | 142 | 4.0 | 10.0 | 0.00 | 0.00 | 0.00 | 52 | 1011.3 |
| 20260507084532 | 48 | 124 | 5.0 | 13.0 | 0.00 | 0.00 | 0.00 | 52 | 1011.3 |
| 20260507083011 | 47 | 115 | 8.0 | 10.0 | 0.00 | 0.00 | 0.00 | 54 | 1011.2 |
| 20260507081513 | 47 | 101 | 5.0 | 11.0 | 0.00 | 0.00 | 0.00 | 55 | 1011.5 |
| 20260507080009 | 47 | 103 | 6.0 | 10.0 | 0.00 | 0.00 | 0.00 | 58 | 1011.3 |
| 20260507074508 | 48 | 121 | 8.0 | 10.0 | 0.00 | 0.00 | 0.00 | 58 | 1011.2 |
| 20260507073007 | 47 | 94 | 7.0 | 10.0 | 0.00 | 0.00 | 0.00 | 62 | 1011.2 |
| 20260507071505 | 49 | 69 | 8.0 | 13.0 | 0.00 | 0.00 | 0.00 | 59 | 1011.0 |
| 20260507070018 | 50 | 131 | 8.0 | 10.0 | 0.00 | 0.00 | 0.00 | 58 | 1010.8 |
| 20260507064515 | 49 | 138 | 9.0 | 12.0 | 0.00 | 0.00 | 0.00 | 60 | 1010.7 |
| 20260507063012 | 48 | 113 | 8.0 | 14.0 | 0.00 | 0.00 | 0.00 | 58 | 1010.8 |
| 20260507061510 | 46 | 124 | 9.0 | 14.0 | 0.00 | 0.00 | 0.00 | 55 | 1010.7 |
| 20260507060101 | 47 | 112 | 10.0 | 14.0 | 0.00 | 0.00 | 0.00 | 51 | 1010.9 |
| 20260507054612 | 49 | 103 | 11.0 | 19.0 | 0.00 | 0.00 | 0.00 | 45 | 1010.9 |
| 20260507053105 | 50 | 111 | 15.0 | 22.0 | 0.00 | 0.00 | 0.00 | 42 | 1010.8 |
| 20260507051558 | 51 | 113 | 19.0 | 23.0 | 0.00 | 0.00 | 0.00 | 37 | 1010.4 |
| 20260507050056 | 52 | 58 | 14.0 | 20.0 | 0.00 | 0.00 | 0.00 | 38 | 1011.3 |
| 20260507044557 | 53 | 86 | 11.0 | 19.0 | 0.00 | 0.00 | 0.00 | 38 | 1010.4 |
| 20260507043053 | 54 | 109 | 13.0 | 18.0 | 0.00 | 0.00 | 0.00 | 37 | 1009.9 |
| 20260507041601 | 55 | 103 | 10.0 | 13.0 | 0.00 | 0.00 | 0.00 | 38 | 1010.2 |
| 20260507040055 | 57 | 108 | 12.0 | 17.0 | 0.00 | 0.00 | 0.00 | 34 | 1010.0 |
| 20260507034559 | 57 | 115 | 11.0 | 14.0 | 0.00 | 0.00 | 0.00 | 35 | 1009.6 |
| 20260507033055 | 58 | 123 | 9.0 | 13.0 | 0.00 | 0.00 | 0.00 | 35 | 1009.8 |
| 20260507031553 | 57 | 113 | 9.0 | 11.0 | 0.00 | 0.00 | 0.00 | 37 | 1009.7 |
| 20260507030053 | 55 | 119 | 7.0 | 8.0 | 0.00 | 0.00 | 0.00 | 40 | 1009.5 |
| 20260507024554 | 56 | 102 | 3.0 | 7.0 | 0.00 | 0.00 | 0.00 | 39 | 1009.5 |
| 20260507023052 | 58 | 62 | 2.0 | 4.0 | 0.00 | 0.00 | 0.00 | 38 | 1009.6 |
| 20260507021608 | 59 | 40 | 3.0 | 6.0 | 0.00 | 0.00 | 0.00 | 36 | 1009.4 |
| 20260507020109 | 60 | 49 | 5.0 | 7.0 | 0.00 | 0.00 | 0.00 | 34 | 1009.2 |
| 20260507014618 | 62 | 28 | 6.0 | 9.0 | 0.00 | 0.00 | 0.00 | 29 | 1009.3 |
| 20260507013052 | 63 | 333 | 4.0 | 6.0 | 0.00 | 0.00 | 0.00 | 28 | 1009.3 |
| 20260507011557 | 65 | 326 | 5.0 | 10.0 | 0.00 | 0.00 | 0.00 | 27 | 1009.6 |
| 20260507010049 | 66 | 304 | 4.0 | 10.0 | 0.00 | 0.00 | 0.00 | 27 | 1009.5 |
| 20260507004548 | 65 | 327 | 8.0 | 12.0 | 0.00 | 0.00 | 0.00 | 26 | 1009.6 |
| 20260507003047 | 66 | 342 | 11.0 | 17.0 | 0.00 | 0.00 | 0.00 | 26 | 1009.7 |
| 20260507001600 | 66 | 335 | 9.0 | 16.0 | 0.00 | 0.00 | 0.00 | 25 | 1009.8 |
| 20260507000122 | 66 | 302 | 16.0 | 22.0 | 0.00 | 0.00 | 0.00 | 24 | 1009.8 |
| 20260506234615 | 67 | 291 | 18.0 | 24.0 | 0.00 | 0.00 | 0.00 | 23 | 1009.8 |
| 20260506233053 | 65 | 289 | 14.0 | 19.0 | 0.00 | 0.00 | 0.00 | 24 | 1009.9 |
| 20260506231552 | 66 | 302 | 11.0 | 19.0 | 0.00 | 0.00 | 0.00 | 25 | 1010.0 |
| 20260506230052 | 66 | 284 | 15.0 | 25.0 | 0.00 | 0.00 | 0.00 | 25 | 1010.0 |
| 20260506224542 | 65 | 273 | 9.0 | 17.0 | 0.00 | 0.00 | 0.00 | 25 | 1010.1 |
| 20260506223040 | 65 | 275 | 8.0 | 16.0 | 0.00 | 0.00 | 0.00 | 27 | 1010.2 |
| 20260506221550 | 66 | 282 | 10.0 | 21.0 | 0.00 | 0.00 | 0.00 | 27 | 1010.5 |
| 20260506220045 | 65 | 286 | 13.0 | 21.0 | 0.00 | 0.00 | 0.00 | 26 | 1010.6 |
| 20260506214537 | 64 | 218 | 3.0 | 16.0 | 0.00 | 0.00 | 0.00 | 28 | 1010.9 |
| 20260506213043 | 64 | 290 | 9.0 | 17.0 | 0.00 | 0.00 | 0.00 | 29 | 1011.0 |
| 20260506211542 | 63 | 309 | 9.0 | 20.0 | 0.00 | 0.00 | 0.00 | 27 | 1011.1 |
| 20260506210042 | 62 | 312 | 8.0 | 14.0 | 0.00 | 0.00 | 0.00 | 28 | 1011.2 |
| 20260506204533 | 61 | 180 | 6.0 | 15.0 | 0.00 | 0.00 | 0.00 | 27 | 1011.5 |
| 20260506203027 | 60 | 261 | 8.0 | 14.0 | 0.00 | 0.00 | 0.00 | 29 | 1011.9 |
| 20260506201533 | 58 | 233 | 7.0 | 17.0 | 0.00 | 0.00 | 0.00 | 27 | 1011.9 |
| 20260506200029 | 59 | 227 | 11.0 | 17.0 | 0.00 | 0.00 | 0.00 | 28 | 1012.0 |
| 20260506194521 | 58 | 221 | 9.0 | 18.0 | 0.00 | 0.00 | 0.00 | 30 | 1012.4 |
| 20260506193030 | 57 | 248 | 9.0 | 14.0 | 0.00 | 0.00 | 0.00 | 29 | 1012.5 |
| 20260506191516 | 57 | 200 | 10.0 | 15.0 | 0.00 | 0.00 | 0.00 | 30 | 1012.7 |
| 20260506190017 | 55 | 210 | 4.0 | 18.0 | 0.00 | 0.00 | 0.00 | 29 | 1012.8 |
| 20260506184514 | 55 | 224 | 4.0 | 15.0 | 0.00 | 0.00 | 0.00 | 30 | 1013.1 |